Location: Unspecified
(50.7693°N, 0.0000°E)
Time: 10:17:54
(UTC+00:00)

SR - Pass Details

Date: 29 June 2019
Orbit: 580 x 875 km, 66.7° (Epoch: 16 July)

Event Time Altitude Azimuth Distance (km) Brightness Sun altitude
Rises 11:02:15 0° 317° (NW) 3,031 ? 60.0°
Reaches altitude 10° 11:04:36 10° 310° (NW) 2,159 ? 60.2°
Maximum altitude 11:09:09 39° 243° (WSW) 1,106 ? 60.5°
Drops below altitude 10° 11:14:03 10° 176° (S) 2,327 ? 60.8°
Sets 11:16:41 0° 169° (SSE) 3,299 ? 61.0°
